Time,TemperatureF,DewpointF,PressureIn,WindDirection,WindDirectionDegrees,WindSpeedMPH,WindSpeedGustMPH,Humidity,HourlyPrecipIn,Conditions,Clouds,dailyrainin,SoftwareType,DateUTC
2013-07-26 00:00:00,77.8,66.0,29.79,ESE,119,0.0,0.0,67,0.00,,,0.05,Wunderground v.1.15,2013-07-26 06:00:00,
2013-07-26 00:10:00,77.5,65.7,29.77,ESE,119,0.0,0.0,67,0.00,,,0.00,Wunderground v.1.15,2013-07-26 06:10:00,
2013-07-26 00:15:00,77.4,65.6,29.77,ESE,120,0.0,0.0,67,0.00,,,0.00,Wunderground v.1.15,2013-07-26 06:15:00,
2013-07-26 00:25:00,77.1,65.7,29.77,ESE,119,0.0,0.0,68,0.00,,,0.00,Wunderground v.1.15,2013-07-26 06:25:00,
2013-07-26 00:30:00,77.1,65.7,29.77,ESE,119,0.0,0.0,68,0.00,,,0.00,Wunderground v.1.15,2013-07-26 06:30:00,
2013-07-26 00:35:00,76.9,65.5,29.77,ESE,119,0.0,0.0,68,0.00,,,0.00,Wunderground v.1.15,2013-07-26 06:35:00,
2013-07-26 00:45:00,76.6,65.2,29.77,ESE,120,0.0,0.0,68,0.00,,,0.00,Wunderground v.1.15,2013-07-26 06:45:00,
2013-07-26 00:50:00,76.5,65.6,29.77,ESE,119,0.0,0.0,69,0.00,,,0.00,Wunderground v.1.15,2013-07-26 06:50:00,
2013-07-26 01:00:00,76.3,65.4,29.78,ESE,120,0.0,0.0,69,0.00,,,0.00,Wunderground v.1.15,2013-07-26 07:00:00,
2013-07-26 01:05:00,76.2,65.7,29.77,ESE,119,0.0,0.0,70,0.00,,,0.00,Wunderground v.1.15,2013-07-26 07:05:00,
2013-07-26 01:15:00,75.9,65.4,29.77,ESE,119,0.0,0.0,70,0.00,,,0.00,Wunderground v.1.15,2013-07-26 07:15:00,
2013-07-26 01:25:00,75.7,65.6,29.77,ESE,119,0.0,0.0,71,0.00,,,0.00,Wunderground v.1.15,2013-07-26 07:25:00,
2013-07-26 01:35:00,75.5,65.4,29.77,ESE,120,0.0,0.0,71,0.00,,,0.00,Wunderground v.1.15,2013-07-26 07:35:00,
2013-07-26 01:40:00,75.3,65.2,29.77,ESE,119,0.0,0.0,71,0.00,,,0.00,Wunderground v.1.15,2013-07-26 07:40:00,
2013-07-26 01:45:00,75.2,65.6,29.77,ESE,120,0.0,0.0,72,0.00,,,0.00,Wunderground v.1.15,2013-07-26 07:45:00,
2013-07-26 01:50:00,75.1,65.1,29.77,ESE,119,0.0,0.0,71,0.00,,,0.00,Wunderground v.1.15,2013-07-26 07:50:00,
2013-07-26 01:55:00,74.9,64.9,29.76,ESE,120,0.0,0.0,71,0.00,,,0.00,Wunderground v.1.15,2013-07-26 07:55:00,
2013-07-26 02:05:00,74.8,64.8,29.77,ESE,120,0.0,0.0,71,0.00,,,0.00,Wunderground v.1.15,2013-07-26 08:05:00,
2013-07-26 02:15:00,74.6,64.6,29.77,ESE,119,0.0,0.0,71,0.00,,,0.00,Wunderground v.1.15,2013-07-26 08:15:00,
2013-07-26 02:20:00,74.6,64.6,29.77,ESE,120,0.0,0.0,71,0.00,,,0.00,Wunderground v.1.15,2013-07-26 08:20:00,
2013-07-26 02:30:00,74.4,64.4,29.78,ESE,119,0.0,0.0,71,0.00,,,0.00,Wunderground v.1.15,2013-07-26 08:30:00,
2013-07-26 02:35:00,74.4,64.4,29.78,ESE,120,0.0,0.0,71,0.00,,,0.00,Wunderground v.1.15,2013-07-26 08:35:00,
2013-07-26 02:45:00,74.2,64.6,29.77,ESE,120,0.0,0.0,72,0.00,,,0.00,Wunderground v.1.15,2013-07-26 08:45:00,
2013-07-26 02:50:00,74.1,64.5,29.77,ESE,119,0.0,0.0,72,0.00,,,0.00,Wunderground v.1.15,2013-07-26 08:50:00,
2013-07-26 02:55:00,74.1,64.5,29.77,ESE,120,0.0,0.0,72,0.00,,,0.00,Wunderground v.1.15,2013-07-26 08:55:00,
2013-07-26 03:00:00,74.0,64.4,29.78,ESE,119,0.0,0.0,72,0.00,,,0.00,Wunderground v.1.15,2013-07-26 09:00:00,
2013-07-26 03:05:00,73.9,64.3,29.78,ESE,120,0.0,0.0,72,0.00,,,0.00,Wunderground v.1.15,2013-07-26 09:05:00,
2013-07-26 03:15:00,73.8,64.2,29.78,ESE,120,0.0,0.0,72,0.00,,,0.00,Wunderground v.1.15,2013-07-26 09:15:00,
2013-07-26 03:20:00,73.8,64.2,29.78,ESE,120,0.0,0.0,72,0.00,,,0.00,Wunderground v.1.15,2013-07-26 09:20:00,
2013-07-26 03:25:00,73.7,64.5,29.78,ESE,120,0.0,0.0,73,0.00,,,0.00,Wunderground v.1.15,2013-07-26 09:25:00,
2013-07-26 03:30:00,73.7,64.5,29.78,ESE,120,0.0,0.0,73,0.00,,,0.00,Wunderground v.1.15,2013-07-26 09:30:00,
2013-07-26 03:40:00,73.5,64.3,29.78,ESE,120,0.0,0.0,73,0.00,,,0.00,Wunderground v.1.15,2013-07-26 09:40:00,
2013-07-26 03:50:00,73.4,64.2,29.79,ESE,120,0.0,0.0,73,0.00,,,0.00,Wunderground v.1.15,2013-07-26 09:50:00,
2013-07-26 03:55:00,73.3,64.1,29.79,ESE,120,0.0,0.0,73,0.00,,,0.00,Wunderground v.1.15,2013-07-26 09:55:00,
2013-07-26 04:00:00,73.3,64.1,29.79,ESE,119,0.0,0.0,73,0.00,,,0.00,Wunderground v.1.15,2013-07-26 10:00:00,
2013-07-26 04:05:00,73.2,64.0,29.79,ESE,120,0.0,0.0,73,0.00,,,0.00,Wunderground v.1.15,2013-07-26 10:05:00,
2013-07-26 04:15:00,73.1,63.9,29.80,ESE,119,0.0,0.0,73,0.00,,,0.00,Wunderground v.1.15,2013-07-26 10:15:00,
2013-07-26 04:20:00,73.1,63.9,29.80,ESE,120,0.0,0.0,73,0.00,,,0.00,Wunderground v.1.15,2013-07-26 10:20:00,
2013-07-26 04:25:00,73.1,64.3,29.80,ESE,120,0.0,0.0,74,0.00,,,0.00,Wunderground v.1.15,2013-07-26 10:25:00,
2013-07-26 04:30:00,73.1,64.3,29.80,ESE,120,0.0,0.0,74,0.00,,,0.00,Wunderground v.1.15,2013-07-26 10:30:00,
2013-07-26 04:35:00,73.0,64.2,29.80,ESE,120,0.0,0.0,74,0.00,,,0.00,Wunderground v.1.15,2013-07-26 10:35:00,
2013-07-26 04:45:00,72.9,63.7,29.80,ESE,120,0.0,0.0,73,0.00,,,0.00,Wunderground v.1.15,2013-07-26 10:45:00,
2013-07-26 04:50:00,72.9,63.7,29.80,ESE,120,0.0,0.0,73,0.00,,,0.00,Wunderground v.1.15,2013-07-26 10:50:00,
2013-07-26 05:00:00,72.8,63.6,29.80,ESE,120,0.0,0.0,73,0.00,,,0.00,Wunderground v.1.15,2013-07-26 11:00:00,
2013-07-26 05:05:00,72.8,63.6,29.81,ESE,119,0.0,0.0,73,0.00,,,0.00,Wunderground v.1.15,2013-07-26 11:05:00,
2013-07-26 05:15:00,72.8,63.2,29.81,ESE,123,0.0,0.0,72,0.00,,,0.00,Wunderground v.1.15,2013-07-26 11:15:00,
2013-07-26 05:20:00,72.8,63.2,29.82,ESE,123,0.0,0.0,72,0.00,,,0.00,Wunderground v.1.15,2013-07-26 11:20:00,
2013-07-26 05:30:00,72.8,63.2,29.82,ESE,123,0.0,0.0,72,0.00,,,0.00,Wunderground v.1.15,2013-07-26 11:30:00,
2013-07-26 05:35:00,72.7,63.1,29.82,ESE,123,0.0,0.0,72,0.00,,,0.00,Wunderground v.1.15,2013-07-26 11:35:00,
2013-07-26 05:40:00,72.7,63.1,29.82,ESE,123,0.0,0.0,72,0.00,,,0.00,Wunderground v.1.15,2013-07-26 11:40:00,
2013-07-26 05:45:00,72.7,63.1,29.82,ESE,123,0.0,0.0,72,0.00,,,0.00,Wunderground v.1.15,2013-07-26 11:45:00,
2013-07-26 05:55:00,72.6,63.4,29.83,ESE,123,0.0,0.0,73,0.00,,,0.00,Wunderground v.1.15,2013-07-26 11:55:00,
2013-07-26 06:05:00,72.6,63.8,29.83,ESE,123,0.0,0.0,74,0.00,,,0.00,Wunderground v.1.15,2013-07-26 12:05:00,
2013-07-26 06:15:00,72.5,63.7,29.82,ESE,123,0.0,0.0,74,0.00,,,0.00,Wunderground v.1.15,2013-07-26 12:15:00,
2013-07-26 06:20:00,72.4,63.6,29.83,ESE,123,0.0,0.0,74,0.00,,,0.00,Wunderground v.1.15,2013-07-26 12:20:00,
2013-07-26 06:25:00,72.4,63.6,29.83,ESE,123,0.0,0.0,74,0.00,,,0.00,Wunderground v.1.15,2013-07-26 12:25:00,
2013-07-26 06:30:00,72.3,63.9,29.84,ESE,123,0.0,0.0,75,0.00,,,0.00,Wunderground v.1.15,2013-07-26 12:30:00,
2013-07-26 06:35:00,72.2,64.2,29.84,ESE,123,0.0,0.0,76,0.00,,,0.00,Wunderground v.1.15,2013-07-26 12:35:00,
2013-07-26 06:40:00,72.2,64.2,29.84,ESE,123,0.0,0.0,76,0.00,,,0.00,Wunderground v.1.15,2013-07-26 12:40:00,
2013-07-26 06:45:00,72.1,64.1,29.84,ESE,123,0.0,0.0,76,0.00,,,0.00,Wunderground v.1.15,2013-07-26 12:45:00,
2013-07-26 06:50:00,72.0,64.0,29.84,ESE,123,0.0,0.0,76,0.00,,,0.00,Wunderground v.1.15,2013-07-26 12:50:00,
2013-07-26 06:55:00,71.9,64.3,29.84,ESE,123,0.0,0.0,77,0.00,,,0.00,Wunderground v.1.15,2013-07-26 12:55:00,
2013-07-26 07:06:00,71.8,64.6,29.85,ESE,123,0.0,0.0,78,0.00,,,0.00,Wunderground v.1.15,2013-07-26 13:06:00,
2013-07-26 07:15:00,71.7,64.8,29.85,ESE,123,0.0,0.0,79,0.00,,,0.00,Wunderground v.1.15,2013-07-26 13:15:00,
2013-07-26 07:20:00,71.7,64.8,29.85,ESE,123,0.0,0.0,79,0.00,,,0.00,Wunderground v.1.15,2013-07-26 13:20:00,
2013-07-26 07:25:00,71.7,64.8,29.85,ESE,123,0.0,0.0,79,0.00,,,0.00,Wunderground v.1.15,2013-07-26 13:25:00,
2013-07-26 07:30:00,71.7,65.2,29.85,ESE,123,0.0,0.0,80,0.00,,,0.00,Wunderground v.1.15,2013-07-26 13:30:00,
2013-07-26 07:35:00,71.9,65.4,29.85,ESE,123,0.0,0.0,80,0.00,,,0.00,Wunderground v.1.15,2013-07-26 13:35:00,
2013-07-26 07:45:00,72.3,65.8,29.86,ESE,123,0.0,0.0,80,0.00,,,0.00,Wunderground v.1.15,2013-07-26 13:45:00,
2013-07-26 07:50:00,72.7,65.8,29.85,ESE,123,0.0,0.0,79,0.00,,,0.00,Wunderground v.1.15,2013-07-26 13:50:00,
2013-07-26 07:55:00,73.2,65.6,29.86,ESE,123,0.0,0.0,77,0.00,,,0.00,Wunderground v.1.15,2013-07-26 13:55:00,
2013-07-26 08:00:00,73.8,66.1,29.86,ESE,123,0.0,0.0,77,0.00,,,0.00,Wunderground v.1.15,2013-07-26 14:00:00,
2013-07-26 08:05:00,74.3,65.9,29.87,ESE,123,0.0,0.0,75,0.00,,,0.00,Wunderground v.1.15,2013-07-26 14:05:00,
2013-07-26 08:15:00,75.5,66.2,29.86,ESE,123,0.0,0.0,73,0.00,,,0.00,Wunderground v.1.15,2013-07-26 14:15:00,
2013-07-26 08:20:00,76.2,66.9,29.86,ESE,123,0.0,0.0,73,0.00,,,0.00,Wunderground v.1.15,2013-07-26 14:20:00,
2013-07-26 08:25:00,76.8,66.3,29.85,ESE,123,0.0,0.0,70,0.00,,,0.00,Wunderground v.1.15,2013-07-26 14:25:00,
2013-07-26 08:30:00,77.4,66.0,29.85,ESE,123,0.0,0.0,68,0.00,,,0.00,Wunderground v.1.15,2013-07-26 14:30:00,
2013-07-26 08:35:00,78.0,66.6,29.85,ESE,123,0.0,0.0,68,0.00,,,0.00,Wunderground v.1.15,2013-07-26 14:35:00,
2013-07-26 08:40:00,78.7,66.4,29.85,ESE,123,0.0,0.0,66,0.00,,,0.00,Wunderground v.1.15,2013-07-26 14:40:00,
2013-07-26 08:45:00,79.2,66.4,29.84,ESE,123,0.0,0.0,65,0.00,,,0.00,Wunderground v.1.15,2013-07-26 14:45:00,
2013-07-26 08:50:00,79.7,66.0,29.85,ESE,123,0.0,0.0,63,0.00,,,0.00,Wunderground v.1.15,2013-07-26 14:50:00,
2013-07-26 08:55:00,80.2,66.5,29.85,ESE,123,0.0,0.0,63,0.00,,,0.00,Wunderground v.1.15,2013-07-26 14:55:00,
2013-07-26 09:00:00,80.7,66.0,29.84,ESE,123,0.0,0.0,61,0.00,,,0.00,Wunderground v.1.15,2013-07-26 15:00:00,
2013-07-26 09:05:00,81.2,66.5,29.85,ESE,123,0.0,0.0,61,0.00,,,0.00,Wunderground v.1.15,2013-07-26 15:05:00,
2013-07-26 09:15:00,82.2,66.9,29.84,ESE,123,0.0,0.0,60,0.00,,,0.00,Wunderground v.1.15,2013-07-26 15:15:00,
2013-07-26 09:20:00,82.7,66.4,29.84,South,180,0.0,0.0,58,0.00,,,0.00,Wunderground v.1.15,2013-07-26 15:20:00,
2013-07-26 09:30:00,83.4,66.1,29.84,South,180,0.0,0.0,56,0.00,,,0.00,Wunderground v.1.15,2013-07-26 15:30:00,
2013-07-26 09:35:00,83.8,66.4,29.83,South,180,0.0,0.0,56,0.00,,,0.00,Wunderground v.1.15,2013-07-26 15:35:00,
2013-07-26 09:40:00,84.3,67.4,29.83,NW,322,0.0,0.0,57,0.00,,,0.00,Wunderground v.1.15,2013-07-26 15:40:00,
2013-07-26 09:45:00,84.7,66.2,29.83,NW,322,0.0,0.0,54,0.00,,,0.00,Wunderground v.1.15,2013-07-26 15:45:00,
2013-07-26 09:50:00,85.2,67.2,29.83,NW,321,0.0,0.0,55,0.00,,,0.00,Wunderground v.1.15,2013-07-26 15:50:00,
2013-07-26 10:00:00,85.6,66.0,29.82,NW,321,0.0,0.0,52,0.00,,,0.00,Wunderground v.1.15,2013-07-26 16:00:00,
2013-07-26 10:05:00,86.2,66.5,29.82,NW,321,0.0,0.0,52,0.00,,,0.00,Wunderground v.1.15,2013-07-26 16:05:00,
2013-07-26 10:15:00,87.1,66.2,29.82,NW,321,0.0,0.0,50,0.00,,,0.00,Wunderground v.1.15,2013-07-26 16:15:00,
2013-07-26 10:25:00,88.2,65.4,29.81,NW,321,0.0,0.0,47,0.00,,,0.00,Wunderground v.1.15,2013-07-26 16:25:00,
2013-07-26 10:30:00,88.7,65.3,29.81,NW,322,0.0,0.0,46,0.00,,,0.00,Wunderground v.1.15,2013-07-26 16:30:00,
2013-07-26 10:40:00,89.5,66.6,29.80,NW,323,0.0,0.0,47,0.00,,,0.00,Wunderground v.1.15,2013-07-26 16:40:00,
2013-07-26 10:45:00,90.0,67.1,29.80,NW,325,0.0,0.0,47,0.00,,,0.00,Wunderground v.1.15,2013-07-26 16:45:00,
2013-07-26 10:50:00,90.2,67.2,29.80,NW,319,0.0,0.0,47,0.00,,,0.00,Wunderground v.1.15,2013-07-26 16:50:00,
2013-07-26 10:55:00,90.5,66.3,29.80,NW,313,0.0,0.0,45,0.00,,,0.00,Wunderground v.1.15,2013-07-26 16:55:00,
2013-07-26 11:00:00,90.8,66.5,29.80,NNE,29,0.0,1.0,45,0.00,,,0.00,Wunderground v.1.15,2013-07-26 17:00:00,
2013-07-26 11:05:00,90.9,66.6,29.81,NW,310,0.0,1.0,45,0.00,,,0.00,Wunderground v.1.15,2013-07-26 17:05:00,
2013-07-26 11:15:00,91.3,66.3,29.81,NW,310,0.0,0.0,44,0.00,,,0.00,Wunderground v.1.15,2013-07-26 17:15:00,
2013-07-26 11:20:00,91.5,66.5,29.80,WSW,243,0.0,0.0,44,0.00,,,0.00,Wunderground v.1.15,2013-07-26 17:20:00,
2013-07-26 11:25:00,91.8,67.4,29.79,WNW,295,0.0,0.0,45,0.00,,,0.00,Wunderground v.1.15,2013-07-26 17:25:00,
2013-07-26 11:35:00,91.8,66.8,29.80,WNW,295,0.0,0.0,44,0.00,,,0.00,Wunderground v.1.15,2013-07-26 17:35:00,
2013-07-26 11:45:00,92.5,66.7,29.80,NW,311,0.0,0.0,43,0.00,,,0.00,Wunderground v.1.15,2013-07-26 17:45:00,
2013-07-26 11:50:00,92.8,67.0,29.80,NW,311,0.0,0.0,43,0.00,,,0.00,Wunderground v.1.15,2013-07-26 17:50:00,
2013-07-26 11:55:00,93.2,66.7,29.78,NW,306,0.0,0.0,42,0.00,,,0.00,Wunderground v.1.15,2013-07-26 17:55:00,
2013-07-26 12:00:00,93.5,67.6,29.78,NW,306,0.0,0.0,43,0.00,,,0.00,Wunderground v.1.15,2013-07-26 18:00:00,
2013-07-26 12:05:00,93.8,66.5,29.79,NNE,22,0.0,0.0,41,0.00,,,0.00,Wunderground v.1.15,2013-07-26 18:05:00,
2013-07-26 12:15:00,94.1,67.5,29.78,NW,321,0.0,0.0,42,0.00,,,0.00,Wunderground v.1.15,2013-07-26 18:15:00,
2013-07-26 12:20:00,94.2,67.6,29.77,NW,323,1.0,1.0,42,0.00,,,0.00,Wunderground v.1.15,2013-07-26 18:20:00,
2013-07-26 12:25:00,94.3,67.0,29.78,NNW,337,0.0,1.0,41,0.00,,,0.00,Wunderground v.1.15,2013-07-26 18:25:00,
2013-07-26 12:30:00,94.0,66.7,29.77,North,355,0.0,0.0,41,0.00,,,0.00,Wunderground v.1.15,2013-07-26 18:30:00,
2013-07-26 12:40:00,93.9,66.6,29.77,SW,233,0.0,0.0,41,0.00,,,0.00,Wunderground v.1.15,2013-07-26 18:40:00,
2013-07-26 12:45:00,94.1,66.1,29.76,WSW,241,0.0,0.0,40,0.00,,,0.00,Wunderground v.1.15,2013-07-26 18:45:00,
2013-07-26 12:55:00,94.3,66.3,29.76,West,261,0.0,0.0,40,0.00,,,0.00,Wunderground v.1.15,2013-07-26 18:55:00,
2013-07-26 13:00:00,94.0,66.0,29.76,West,273,0.0,0.0,40,0.00,,,0.00,Wunderground v.1.15,2013-07-26 19:00:00,
2013-07-26 13:05:00,93.9,66.6,29.77,West,272,0.0,0.0,41,0.00,,,0.00,Wunderground v.1.15,2013-07-26 19:05:00,
2013-07-26 13:15:00,94.1,65.4,29.77,SSE,167,0.0,0.0,39,0.00,,,0.00,Wunderground v.1.15,2013-07-26 19:15:00,
2013-07-26 13:20:00,94.8,66.7,29.76,ESE,113,0.0,0.0,40,0.00,,,0.00,Wunderground v.1.15,2013-07-26 19:20:00,
2013-07-26 13:25:00,95.5,66.6,29.76,East,82,0.0,0.0,39,0.00,,,0.00,Wunderground v.1.15,2013-07-26 19:25:00,
2013-07-26 13:30:00,96.5,66.0,29.74,NE,44,0.0,0.0,37,0.00,,,0.00,Wunderground v.1.15,2013-07-26 19:30:00,
2013-07-26 13:35:00,97.2,67.4,29.74,NE,48,0.0,0.0,38,0.00,,,0.00,Wunderground v.1.15,2013-07-26 19:35:00,
2013-07-26 13:40:00,97.7,67.0,29.74,NW,321,0.0,0.0,37,0.00,,,0.00,Wunderground v.1.15,2013-07-26 19:40:00,
2013-07-26 13:45:00,97.7,67.8,29.73,WNW,302,0.0,0.0,38,0.00,,,0.00,Wunderground v.1.15,2013-07-26 19:45:00,
2013-07-26 13:55:00,98.2,65.9,29.73,SE,142,0.0,0.0,35,0.00,,,0.00,Wunderground v.1.15,2013-07-26 19:55:00,
2013-07-26 14:00:00,98.3,65.1,29.73,SW,219,0.0,0.0,34,0.00,,,0.00,Wunderground v.1.15,2013-07-26 20:00:00,
2013-07-26 14:06:00,98.0,66.5,29.74,SSE,155,0.0,0.0,36,0.00,,,0.00,Wunderground v.1.15,2013-07-26 20:06:00,
2013-07-26 14:15:00,93.8,62.8,29.75,ENE,74,2.0,2.0,36,0.00,,,0.00,Wunderground v.1.15,2013-07-26 20:15:00,
2013-07-26 14:20:00,91.9,61.9,29.75,South,183,3.0,3.0,37,0.00,,,0.00,Wunderground v.1.15,2013-07-26 20:20:00,
2013-07-26 14:30:00,90.6,59.2,29.75,East,90,1.0,1.0,35,0.00,,,0.00,Wunderground v.1.15,2013-07-26 20:30:00,
2013-07-26 14:35:00,90.0,61.0,29.75,ESE,115,1.0,1.0,38,0.00,,,0.00,Wunderground v.1.15,2013-07-26 20:35:00,
2013-07-26 14:40:00,89.1,61.6,29.76,SE,146,1.0,4.0,40,0.00,,,0.00,Wunderground v.1.15,2013-07-26 20:40:00,
2013-07-26 14:45:00,87.2,63.3,29.77,ESE,119,2.0,4.0,45,0.00,,,0.00,Wunderground v.1.15,2013-07-26 20:45:00,
2013-07-26 14:50:00,85.9,62.1,29.78,ESE,114,2.0,2.0,45,0.00,,,0.00,Wunderground v.1.15,2013-07-26 20:50:00,
2013-07-26 14:55:00,85.2,62.1,29.80,East,84,1.0,2.0,46,0.00,,,0.00,Wunderground v.1.15,2013-07-26 20:55:00,
2013-07-26 15:00:00,84.8,63.5,29.81,North,350,0.0,0.0,49,0.00,,,0.00,Wunderground v.1.15,2013-07-26 21:00:00,
2013-07-26 15:06:00,84.1,63.5,29.80,North,355,0.0,0.0,50,0.00,,,0.00,Wunderground v.1.15,2013-07-26 21:06:00,
2013-07-26 15:15:00,82.2,63.9,29.80,North,350,0.0,1.0,54,0.00,,,0.00,Wunderground v.1.15,2013-07-26 21:15:00,
2013-07-26 15:20:00,81.4,64.7,29.81,NNW,330,0.0,0.0,57,0.00,,,0.00,Wunderground v.1.15,2013-07-26 21:20:00,
2013-07-26 15:25:00,80.9,64.7,29.80,NNW,330,0.0,0.0,58,0.00,,,0.00,Wunderground v.1.15,2013-07-26 21:25:00,
2013-07-26 15:30:00,80.5,66.3,29.80,NNW,329,0.0,0.0,62,0.00,,,0.00,Wunderground v.1.15,2013-07-26 21:30:00,
2013-07-26 15:35:00,80.0,66.3,29.81,NNW,332,0.0,0.0,63,0.00,,,0.00,Wunderground v.1.15,2013-07-26 21:35:00,
2013-07-26 15:40:00,79.5,66.7,29.81,NW,311,0.0,0.0,65,0.00,,,0.00,Wunderground v.1.15,2013-07-26 21:40:00,
2013-07-26 15:45:00,79.0,67.1,29.81,NW,313,0.0,0.0,67,0.00,,,0.00,Wunderground v.1.15,2013-07-26 21:45:00,
2013-07-26 15:50:00,78.7,67.2,29.81,NW,313,0.0,0.0,68,0.00,,,0.00,Wunderground v.1.15,2013-07-26 21:50:00,
2013-07-26 15:55:00,78.4,67.4,29.83,NW,315,0.0,0.0,69,0.00,,,0.00,Wunderground v.1.15,2013-07-26 21:55:00,
2013-07-26 16:00:00,77.9,66.5,29.83,WNW,288,0.0,1.0,68,0.00,,,0.00,Wunderground v.1.15,2013-07-26 22:00:00,
2013-07-26 16:05:00,77.2,65.0,29.83,NNW,331,0.0,1.0,66,0.00,,,0.00,Wunderground v.1.15,2013-07-26 22:05:00,
2013-07-26 16:15:00,76.2,64.0,29.83,NNW,336,0.0,0.0,66,0.00,,,0.00,Wunderground v.1.15,2013-07-26 22:15:00,
2013-07-26 16:25:00,75.5,62.5,29.83,NNW,327,0.0,0.0,64,0.00,,,0.00,Wunderground v.1.15,2013-07-26 22:25:00,
2013-07-26 16:30:00,75.3,63.2,29.82,NNW,327,0.0,0.0,66,0.00,,,0.00,Wunderground v.1.15,2013-07-26 22:30:00,
2013-07-26 16:35:00,75.2,63.9,29.83,NNW,327,0.0,0.0,68,0.00,,,0.00,Wunderground v.1.15,2013-07-26 22:35:00,
2013-07-26 16:45:00,75.1,64.6,29.81,NNW,327,0.0,0.0,70,0.00,,,0.00,Wunderground v.1.15,2013-07-26 22:45:00,
2013-07-26 16:50:00,75.2,65.9,29.81,North,349,0.0,0.0,73,0.00,,,0.00,Wunderground v.1.15,2013-07-26 22:50:00,
2013-07-26 16:55:00,75.3,66.0,29.81,NNW,338,0.0,0.0,73,0.00,,,0.00,Wunderground v.1.15,2013-07-26 22:55:00,
2013-07-26 17:00:00,75.3,66.4,29.81,NW,322,0.0,0.0,74,0.00,,,0.00,Wunderground v.1.15,2013-07-26 23:00:00,
2013-07-26 17:05:00,75.3,66.8,29.82,WNW,298,0.0,1.0,75,0.00,,,0.00,Wunderground v.1.15,2013-07-26 23:05:00,
2013-07-26 17:15:00,75.1,65.9,29.82,North,360,0.0,0.0,73,0.00,,,0.01,Wunderground v.1.15,2013-07-26 23:15:00,